Zurück zum Katalog

FENGYUN 1C DEB

AktivSSO
NORAD 37008·DEBRIS·🇨🇳 China

Gestartet May 10, 1999 von Taiyuan Satellite Launch Center

Loading…

Nächste Überflüge (nächste 24 Stunden)

TLE

AktuellSource: Space-Track

Epoche: Sep 13, 2026, 19:42 UTC

1 37008U 99025ECQ 26256.82102791  .00000833  00000-0  50322-3 0  9993
2 37008  99.1600  24.3771 0058590 208.7140 151.0799 14.08639742641869

Verfolge FENGYUN 1C DEB in Echtzeit mit AllMySat

Download on the App Store